NOAA 16 DEB, 41061

Orbit data source: Space-Track

NOAA 16 DEB, 41061 is space debris in SSO originally from a launch on Thu, 21 Sep 2000 UTC launched from the Air Force Western Test Range (AFWTR). Debris objects in space refer to the collection of defunct objects orbiting the Earth. Examples of debris include non-operational satellites, rocket bodies, and fragments generated from explosions, collisions, or faulty payload assembly.

Loading next visibility...
Identifier
41061, 2000-055U
Orbit
SSO
Country
Flag of USUS
Related business
Manufacturer
Unknown
Mission
Spacecraft
Bus & Motor
Unknown
Mass
Unknown
Launch date (UTC)
2000-09-21 (26 years ago)
Launch vehicle
Unknown
Launch site
Air Force Western Test Range (AFWTR)
Object type
Payload
Rocket body
Debris
Shape & HBR
Unknown shape, 0.1 m
Radar Cross Section
Medium (>0.1 m² and <1 m²)

Expand to show TLE details & history
Last TLE update: 2 days ago

TLE from 2 days ago
0 NOAA 16 DEB
1 41061U 00055U   26171.19691728  .00000780  00000-0  36112-3 0  9993
2 41061  98.6850 256.5150 0017980 261.2952  98.6190 14.23611104546748
Epoch: 2026-06-20T04:43Z
TLE epoch observation values (Epoch: 2026-06-20T04:43:33.652Z)
Latitude
-0.00005°
Longitude
-82.79021°
Altitude
818.047 km
Speed
7.443 km/s
True Right ascension
17h 06m 03s
True Declination
0° 00' 00"
Sunlit
Object was in full shadow at epoch
Visualization orbit readout
Latitude
Unknown
Longitude
Unknown
Altitude
Unknown
Speed
Unknown
Apparent Right ascension
Unknown
Apparent Declination
Unknown
Sunlit
N/A
Visualization observer readout
Local Sidereal Time
22:00:17
Azimuth
Unknown
Elevation
Unknown
Doppler factor
Unknown
Orbital elements
Apogee altitude
823.244 km
Perigee altitude
797.394 km
Semi-major axis
7,188.456 km
Eccentricity
0.0018
Inclination
98.685°
RAAN
256.515°
Arg. of periapsis
261.2952°
True anomaly
98.82264°
Mean anomaly
98.619°
Eccentric anomaly
98.72083°
Mean motion
3.56115 °/min
Orbital period
101.09 mins
BSTAR
0.00036112
Loading maneuver chart data...
Computing Atmospheric mass density...
Loading historical data...
Loading historical data...
Loading historical data...
Loading historical data...
Loading historical data...
Loading historical data...
Loading historical data...

Documentation

Showing up to 5 results
|